Budapest Ferihegy, Hungary

10:58 AM CEST on September 28, 2016 (GMT +0200)
Ferihegy

Weather History for LHBP - November, 2013

Change the Weather History Date:

Monday, November 4, 2013

  Actual Average Record
Temperature  
Mean Temperature 48 °F -  
Max Temperature 53 °F 52 °F 64 °F (2012)
Min Temperature 44 °F 35 °F 21 °F (1997)
Degree Days  
Heating Degree Days 16    
Moisture  
Dew Point 46 °F    
Average Humidity 87    
Maximum Humidity 100    
Minimum Humidity 62    
Precipitation  
Precipitation 0.00 in - - ()
Sea Level Pressure  
Sea Level Pressure 29.76 in    
Wind  
Wind Speed 7 mph ()    
Max Wind Speed 14 mph    
Max Gust Speed -    
Visibility 5.8 miles    
Events Rain    
Averages and records for this station are not official NWS values.
T = Trace of Precipitation, MM = Missing Value Source: Averaged Metar Reports

Daily Weather History Graph

Daily Weather History Graph

Search for Another Location

Airport or City:

Trip Planner

Search our weather history database for the weather conditions in past years. The results will help you decide how hot, cold, wet, or windy it might be!

Date:

Astronomy

Nov. 04, 2013 Rise Set
Actual Time 6:31 AM CET 4:21 PM CET
Civil Twilight 5:58 AM CET 4:53 PM CET
Nautical Twilight 5:22 AM CET 5:30 PM CET
Astronomical Twilight 4:46 AM CET 6:05 PM CET
Moon 7:25 AM CET (11/4) 5:05 PM CET (11/4)
Length of Visible Light 10h 55m
Length of Day
9h 50m
New Moon, 1% of the Moon is Illuminated
Nov 4
New Moon
Nov 10
First Quarter
Nov 17
Full
Nov 25
Last Quarter
Dec 3
New

Hourly Weather History & Observations

Time (CET) Temp. Windchill Dew Point Humidity Pressure Visibility Wind Dir Wind Speed Gust Speed Precip Events Conditions
12:00 AM 48.2 °F - 42.8 °F 82% 29.89 in - West 11.5 mph - N/A   Clear
12:30 AM 50.0 °F - 42.8 °F 76% 29.92 in - West 12.7 mph - N/A   Clear
1:00 AM 50.0 °F - 42.8 °F 76% 29.92 in - West 10.4 mph - N/A   Clear
1:30 AM 48.2 °F - 42.8 °F 82% 29.92 in - WSW 5.8 mph - N/A   Clear
2:00 AM 48.2 °F - 42.8 °F 82% 29.92 in - Variable 3.5 mph - N/A   Clear
2:30 AM 46.4 °F 42.4 °F 42.8 °F 87% 29.92 in - SW 8.1 mph - N/A   Clear
3:00 AM 44.6 °F 43.1 °F 42.8 °F 93% 29.92 in - Variable 3.5 mph - N/A   Clear
3:30 AM 46.4 °F 44.3 °F 42.8 °F 87% 29.92 in - South 4.6 mph - N/A   Clear
4:00 AM 46.4 °F - 42.8 °F 87% 29.92 in - Calm Calm - N/A   Clear
4:30 AM 46.4 °F - 44.6 °F 93% 29.92 in - Variable 1.2 mph - N/A   Clear
5:00 AM 44.6 °F - 42.8 °F 93% 29.92 in - Variable 1.2 mph - N/A   Clear
5:30 AM 44.6 °F - 42.8 °F 93% 29.89 in - Calm Calm - N/A   Clear
6:00 AM 44.6 °F - 42.8 °F 93% 29.89 in - Variable 1.2 mph - N/A   Clear
6:30 AM 46.4 °F 44.3 °F 44.6 °F 93% 29.89 in - West 4.6 mph - N/A   Clear
7:00 AM 46.4 °F - 44.6 °F 93% 29.89 in - Variable 2.3 mph - N/A   Clear
7:30 AM 46.4 °F 44.3 °F 44.6 °F 93% 29.89 in - SSE 4.6 mph - N/A   Clear
8:00 AM 46.4 °F - 44.6 °F 93% 29.89 in - Variable 2.3 mph - N/A   Clear
8:30 AM 46.4 °F 44.3 °F 44.6 °F 93% 29.89 in - SE 4.6 mph - N/A   Clear
9:00 AM 48.2 °F - 44.6 °F 87% 29.89 in - SSE 4.6 mph - N/A   Clear
9:30 AM 48.2 °F - 46.4 °F 93% 29.86 in - SE 5.8 mph - N/A   Clear
10:00 AM 50.0 °F - 44.6 °F 82% 29.86 in - South 8.1 mph - N/A   Clear
10:30 AM 51.8 °F - 46.4 °F 82% 29.86 in - SSE 8.1 mph - N/A   Clear
11:00 AM 51.8 °F - 44.6 °F 76% 29.83 in - South 11.5 mph - N/A   Clear
11:30 AM 51.8 °F - 44.6 °F 76% 29.80 in - SSE 11.5 mph - N/A   Clear
12:00 PM 53.6 °F - 44.6 °F 72% 29.80 in - SE 13.8 mph - N/A   Clear
12:30 PM 53.6 °F - 44.6 °F 72% 29.77 in 6.2 mi SE 12.7 mph - N/A   Mostly Cloudy
1:00 PM 53.6 °F - 41.0 °F 62% 29.74 in 6.2 mi SE 11.5 mph - N/A   Mostly Cloudy
1:30 PM 53.6 °F - 41.0 °F 62% 29.71 in 6.2 mi SE 13.8 mph - N/A   Mostly Cloudy
2:00 PM 53.6 °F - 41.0 °F 62% 29.71 in 6.2 mi SE 13.8 mph - N/A   Mostly Cloudy
2:30 PM 53.6 °F - 42.8 °F 67% 29.68 in 6.2 mi ESE 11.5 mph - N/A   Mostly Cloudy
3:00 PM 51.8 °F - 44.6 °F 76% 29.68 in 6.2 mi ESE 10.4 mph - N/A   Mostly Cloudy
3:30 PM 51.8 °F - 46.4 °F 82% 29.65 in 6.2 mi ESE 10.4 mph - N/A   Mostly Cloudy
4:00 PM 51.8 °F - 46.4 °F 82% 29.65 in 6.2 mi SE 11.5 mph - N/A   Mostly Cloudy
4:30 PM 51.8 °F - 48.2 °F 88% 29.65 in 6.2 mi ESE 6.9 mph - N/A   Mostly Cloudy
5:00 PM 50.0 °F - 48.2 °F 94% 29.62 in 6.2 mi ESE 6.9 mph - N/A   Mostly Cloudy
5:30 PM 50.0 °F - 50.0 °F 100% 29.62 in 6.2 mi ESE 6.9 mph - N/A   Mostly Cloudy
6:00 PM 50.0 °F - 50.0 °F 100% 29.62 in 6.2 mi East 6.9 mph - N/A   Mostly Cloudy
6:30 PM 50.0 °F - 50.0 °F 100% 29.59 in 6.2 mi East 6.9 mph - N/A   Overcast
7:00 PM 50.0 °F - 50.0 °F 100% 29.59 in 6.2 mi ENE 5.8 mph - N/A   Overcast
7:30 PM 50.0 °F - 50.0 °F 100% 29.59 in 6.2 mi ENE 4.6 mph - N/A   Overcast
8:00 PM 50.0 °F - 50.0 °F 100% 29.56 in 6.2 mi East 5.8 mph - N/A   Mostly Cloudy
8:30 PM 50.0 °F - 50.0 °F 100% 29.56 in 5.0 mi ESE 5.8 mph - N/A Rain Light Rain
9:00 PM 50.0 °F - 50.0 °F 100% 29.56 in 5.0 mi East 6.9 mph - N/A   Mostly Cloudy
9:30 PM 50.0 °F - 50.0 °F 100% 29.56 in 5.0 mi ESE 6.9 mph - N/A   Mostly Cloudy
10:00 PM 51.8 °F - 51.8 °F 100% 29.53 in 5.0 mi ESE 6.9 mph - N/A Rain Light Rain
10:30 PM 51.8 °F - 50.0 °F 94% 29.53 in 5.0 mi SE 5.8 mph - N/A Rain Light Rain
11:00 PM 51.8 °F - 50.0 °F 94% 29.53 in 5.0 mi SE 5.8 mph - N/A Rain Light Rain
11:30 PM 51.8 °F - 51.8 °F 100% 29.53 in 4.3 mi SE 8.1 mph - N/A Rain Light Rain